[[{"header":{"parameterUnit":"m.s-1","parameterCategory":1,"la1":30.2991,"la2":30.254,"lo1":-89.0895,"lo2":-89.0444,"dy":0.0017,"dx":0.0017,"nx":28,"ny":28,"refTime":"2024-10-13T21:00:00:Z","depth":0,"parameterNumber":2,"parameterNumberName":"U-component_of_WINDS"},"data":[0,0,0,0,0,0,0,0,0,0,0,0,0,0,0,0,0,0,0,0,0,0,0,0,0,0,0,0,0,0,0,0,0,0,0,0,0,0,0,0,0,0,0,0,0,0,0,0,0,0,0,0,0,0,0,0,0,0,5.1136,5.1138,0,5.1334,5.1336,5.1338,5.1275,5.127,5.1266,5.1262,5.1467,5.1476,5.1485,0,0,0,0,0,0,0,0,0,0,0,0,0,5.0704,5.0712,5.1136,5.1139,5.1141,5.1334,5.1336,5.1339,5.1275,5.127,5.1265,5.126,5.1464,5.1475,5.1486,0,0,0,0,0,0,0,0,0,0,0,0,0,5.0896,5.0715,5.1136,5.1132,5.1134,5.1333,5.1336,5.134,5.1276,5.127,5.1264,5.1258,5.146,5.1474,5.1487,5.1702,0,0,5.1531,5.1537,0,0,0,0,0,0,0,0,5.0885,5.0912,5.113,5.1133,5.1135,5.1273,5.1259,5.1461,5.1278,5.1222,5.1262,5.1254,5.1408,5.1426,5.1477,5.1712,5.1721,5.1532,5.154,5.1547,5.1551,0,0,0,0,0,0,0,5.0872,5.0903,5.1214,5.1134,5.1137,5.1121,5.1142,5.1297,5.1348,5.1227,5.1223,5.1247,5.1408,5.1463,5.1481,5.1724,5.1531,5.1544,5.1553,5.1558,5.2143,5.215,0,0,0,0,0,0,5.0857,5.0892,5.1208,5.122,5.0992,5.1134,5.1157,5.1235,5.1346,5.1357,5.1252,5.1243,5.1442,5.1465,5.1488,5.1745,5.1546,5.156,5.1568,5.2136,5.2145,5.2152,0,0,0,0,0,0,5.0848,5.0886,5.12,5.1055,5.1094,5.1149,5.1237,5.1242,5.1298,5.1366,5.1374,5.1299,5.1438,5.1468,5.1649,5.1751,5.1566,5.1579,5.2128,5.2139,5.2149,5.2262,0,0,0,0,0,0,5.0836,5.0883,5.0965,5.1058,5.1102,5.1358,5.1243,5.1251,5.1322,5.1312,5.1412,5.1423,5.1435,5.1628,5.1663,5.1767,5.159,5.2119,5.2133,5.2145,5.2249,5.2275,5.2297,0,0,0,0,0,5.0821,5.099,5.0969,5.1008,5.1206,5.1364,5.1389,5.14,5.1331,5.1413,5.1457,5.142,5.1735,5.1647,5.1686,5.1796,5.2113,5.2129,5.2144,5.2239,5.227,5.2297,0,0,0,0,0,0,5.0908,5.1002,5.098,5.1184,5.1266,5.1353,5.1457,5.1433,5.1537,5.1524,5.1533,5.1556,5.1741,5.1787,5.1688,5.2009,5.1913,5.1938,5.1972,5.2002,5.2026,5.201,5.1602,0,0,0,0,0,5.0951,5.1072,5.1147,5.132,5.1362,5.1403,5.1472,5.1473,5.1559,5.1593,5.165,5.1735,5.1853,5.1931,5.2043,5.2256,5.2276,5.2351,5.2375,5.2394,5.2415,5.2529,5.2563,5.2205,5.2205,5.2204,0,0,5.1042,5.1108,5.1183,5.1339,5.1403,5.1527,5.1433,5.1568,5.166,5.1614,5.1787,5.1832,5.1928,5.2125,5.2215,5.2169,5.2518,5.2415,5.243,5.244,5.2549,5.2583,5.2613,5.2216,5.2214,5.2212,0,0,5.1269,5.1332,5.1481,5.1547,5.1644,5.167,5.1706,5.1797,5.1824,5.1998,5.1965,5.2076,5.2279,5.2348,5.241,5.2663,5.2632,5.2699,5.2824,5.2935,5.2963,5.2988,5.3077,5.3108,5.272,5.272,5.272,0,5.1369,5.1554,5.1562,5.17,5.1769,5.1732,5.1884,5.1947,5.2077,5.2126,5.2072,5.2326,5.2388,5.26,5.2661,5.2713,5.2754,5.2687,5.2959,5.2984,5.3007,5.3091,5.3125,5.2728,5.2727,5.2726,5.2725,0,5.1671,5.18,5.1909,5.2034,5.2116,5.226,5.229,5.2372,5.2366,5.2397,5.2575,5.2648,5.2773,5.2824,5.2821,5.3036,5.3004,5.2955,5.2859,5.3049,5.3128,5.316,5.2738,5.2736,5.2733,5.2732,0,0,5.1958,5.2085,5.2124,5.218,5.2284,5.2384,5.2527,5.2649,5.2718,5.281,5.2929,5.3101,5.3056,5.3126,5.313,5.3228,5.3421,5.3167,5.3169,5.321,5.3661,5.3695,5.3733,5.3402,5.3408,5.3413,5.3652,0,5.2192,5.2441,5.2452,5.268,5.2798,5.2765,5.2889,5.2967,5.3,5.3106,5.3143,5.3265,5.3197,5.3239,5.3334,5.3377,5.3512,5.3361,5.3512,5.3517,5.3487,5.3775,5.3812,5.4034,5.3683,5.3689,5.3693,0,5.2498,5.2597,5.2836,5.2922,5.2972,5.3083,5.3195,5.3297,5.3385,5.3402,5.348,5.3469,5.3615,5.3515,5.3716,5.3613,5.3675,5.3706,5.3715,5.3728,5.3615,5.3793,5.4105,5.4137,5.3742,5.3738,5.3734,0,5.2681,5.2874,5.3041,5.309,5.3196,5.3274,5.3322,5.3403,5.3475,5.3574,5.3621,5.3736,5.3798,5.3887,5.3907,5.3833,5.4107,5.401,5.4125,5.4124,5.4182,5.4178,5.4506,5.4227,5.4226,5.4226,5.4225,0,5.294,5.3087,5.3124,5.3227,5.339,5.3402,5.3564,5.3606,5.3678,5.3788,5.3768,5.3872,5.3893,5.4002,5.4019,5.4181,5.4211,5.4228,5.423,5.4229,5.4226,5.4268,5.4253,5.4235,5.4233,5.4231,5.4229,0,5.3171,5.3202,5.3382,5.3467,5.3492,5.3608,5.3681,5.3779,5.381,5.395,5.3983,5.4032,5.4159,5.4188,5.434,5.4351,5.4542,5.4531,5.4512,5.4511,5.4623,5.4611,5.4989,5.5038,5.4728,5.4731,5.4733,0,5.3333,5.3445,5.3542,5.3613,5.3664,5.3781,5.3854,5.387,5.3947,5.4055,5.414,5.4264,5.4364,5.4567,5.4616,5.4732,5.4721,5.4846,5.4739,5.4733,5.4721,5.4713,5.4723,5.4865,5.4869,5.4872,5.4874,0,5.3617,5.3627,5.3732,5.3844,5.3932,5.4021,5.4106,5.4166,5.4194,5.4282,5.441,5.4488,5.4641,5.4764,5.4879,5.4928,5.4906,5.4907,5.494,5.4938,5.4921,5.4929,5.4565,5.4898,5.4896,5.4894,5.4893,5.4892,5.3817,5.3914,5.3997,5.4115,5.4181,5.426,5.4356,5.4399,5.4506,5.4631,5.4635,5.4774,5.4858,5.501,5.5067,5.5176,5.5138,5.5185,5.5197,5.5208,5.5216,5.4906,5.5197,5.5197,5.5196,5.5196,5.5195,0,5.4097,5.4149,5.4258,5.4376,5.447,5.444,5.4532,5.4612,5.4735,5.4815,5.4913,5.506,5.5179,5.5237,5.5355,5.5431,5.5424,5.5461,5.5455,5.5466,5.5245,5.5204,5.5465,5.5465,5.5465,5.5465,5.5465,5.5465,5.4254,5.4416,5.4436,5.463,5.4681,5.4816,5.4871,5.4944,5.5008,5.5172,5.5271,5.5308,5.5379,5.5501,5.5609,5.5623,5.5666,5.5709,5.5718,5.551,5.5482,5.5456,5.5417,5.5719,5.5719,5.5929,5.5931,5.5933]},{"header":{"parameterUnit":"m.s-1","parameterCategory":1,"la1":30.2991,"la2":30.254,"lo1":-89.0895,"lo2":-89.0444,"dy":0.0017,"dx":0.0017,"nx":28,"ny":28,"refTime":"2024-10-13T21:00:00:Z","depth":0,"parameterNumber":3,"parameterNumberName":"V-component_of_WINDS"},"data":[0,0,0,0,0,0,0,0,0,0,0,0,0,0,0,0,0,0,0,0,0,0,0,0,0,0,0,0,0,0,0,0,0,0,0,0,0,0,0,0,0,0,0,0,0,0,0,0,0,0,0,0,0,0,0,0,0,0,1.5175,1.5176,0,1.5291,1.5293,1.5294,1.5307,1.5305,1.5304,1.5303,1.5423,1.5427,1.5432,0,0,0,0,0,0,0,0,0,0,0,0,0,1.4962,1.4966,1.5175,1.5176,1.5178,1.5291,1.5293,1.5294,1.5307,1.5305,1.5304,1.5303,1.5422,1.5427,1.5432,0,0,0,0,0,0,0,0,0,0,0,0,0,1.5064,1.4967,1.5174,1.5197,1.5201,1.5291,1.5293,1.5295,1.5307,1.5305,1.5304,1.5302,1.542,1.5426,1.5433,1.5508,0,0,1.5452,1.5455,0,0,0,0,0,0,0,0,1.5058,1.5072,1.5193,1.5196,1.52,1.5283,1.5262,1.5366,1.5308,1.5267,1.5303,1.5301,1.5378,1.5388,1.5414,1.5514,1.5519,1.5453,1.5457,1.546,1.5462,0,0,0,0,0,0,0,1.5051,1.5067,1.5221,1.5194,1.5199,1.5202,1.5214,1.5282,1.5331,1.527,1.5271,1.5285,1.538,1.5407,1.5416,1.5521,1.5453,1.5459,1.5463,1.5465,1.5687,1.5689,0,0,0,0,0,0,1.504,1.5061,1.5217,1.5224,1.5123,1.5207,1.5221,1.5258,1.533,1.5339,1.5286,1.5285,1.5397,1.5409,1.5421,1.5513,1.546,1.5466,1.5469,1.5685,1.5688,1.569,0,0,0,0,0,0,1.5035,1.5054,1.5212,1.5143,1.5164,1.5213,1.5254,1.5261,1.5289,1.5342,1.5351,1.5306,1.5396,1.5412,1.5486,1.5517,1.5469,1.5475,1.5683,1.5686,1.5689,1.5699,0,0,0,0,0,0,1.5029,1.5052,1.5081,1.5144,1.5167,1.5276,1.5256,1.5265,1.53,1.5299,1.5363,1.5372,1.5396,1.5476,1.5492,1.5525,1.548,1.568,1.5684,1.5688,1.5696,1.5702,1.5707,0,0,0,0,0,1.5022,1.508,1.5083,1.5102,1.5205,1.5278,1.5291,1.5318,1.5302,1.5332,1.5366,1.537,1.5511,1.5484,1.5502,1.5538,1.5678,1.5683,1.5688,1.5693,1.5701,1.5707,0,0,0,0,0,0,1.5021,1.5089,1.5093,1.5173,1.5219,1.528,1.5318,1.5325,1.5377,1.5374,1.5405,1.5419,1.5492,1.5522,1.5491,1.5613,1.5593,1.5602,1.5591,1.5599,1.5604,1.5595,1.5485,0,0,0,0,0,1.503,1.5084,1.514,1.5205,1.5228,1.5269,1.5302,1.5318,1.5368,1.5388,1.5427,1.5475,1.553,1.5566,1.562,1.57,1.5713,1.5733,1.5739,1.5743,1.575,1.5793,1.5802,1.5705,1.5705,1.5705,0,0,1.505,1.5094,1.5126,1.5206,1.5244,1.5299,1.5286,1.5344,1.5385,1.5397,1.5469,1.55,1.5555,1.5632,1.5668,1.5659,1.578,1.5749,1.5752,1.5757,1.5799,1.5808,1.5816,1.5708,1.5707,1.5707,0,0,1.5114,1.5152,1.5211,1.5248,1.5306,1.5332,1.5346,1.5405,1.5426,1.5499,1.5508,1.5556,1.5651,1.569,1.5722,1.5798,1.5803,1.5815,1.5844,1.5885,1.5893,1.59,1.5927,1.5936,1.5821,1.5821,1.5821,0,1.5131,1.5214,1.524,1.5298,1.5333,1.5345,1.5404,1.5439,1.5511,1.5535,1.5524,1.5642,1.568,1.5766,1.5784,1.581,1.5826,1.5808,1.589,1.5897,1.5904,1.593,1.594,1.5822,1.5822,1.5822,1.5822,0,1.5232,1.5289,1.5329,1.5397,1.5437,1.5495,1.5529,1.5566,1.5578,1.5605,1.5679,1.5725,1.5787,1.5809,1.5822,1.5896,1.5889,1.5884,1.5864,1.5914,1.5939,1.5949,1.5824,1.5824,1.5823,1.5823,0,0,1.53,1.5381,1.5395,1.5426,1.5489,1.5533,1.5591,1.5652,1.5683,1.5731,1.578,1.5859,1.5854,1.589,1.5907,1.5944,1.6001,1.5934,1.5936,1.5945,1.6084,1.6088,1.6099,1.6004,1.6006,1.6007,1.608,0,1.5371,1.5475,1.5499,1.5588,1.564,1.5652,1.5702,1.5746,1.5773,1.5821,1.585,1.5905,1.5895,1.5916,1.5953,1.5986,1.6029,1.5981,1.6049,1.6052,1.6035,1.6112,1.6117,1.6183,1.6089,1.6091,1.6092,0,1.5468,1.5518,1.5612,1.5667,1.569,1.5735,1.5791,1.5837,1.5887,1.5903,1.5943,1.5956,1.6016,1.5992,1.6075,1.6042,1.6071,1.6091,1.6094,1.6102,1.6075,1.6122,1.6205,1.6214,1.6108,1.6107,1.6105,0,1.5508,1.5599,1.5666,1.5692,1.5758,1.5789,1.5818,1.5866,1.59,1.5949,1.5972,1.6028,1.6059,1.6101,1.6129,1.6109,1.6209,1.6188,1.6224,1.6223,1.6245,1.6244,1.6334,1.6264,1.6264,1.6264,1.6263,0,1.5585,1.5641,1.5685,1.5726,1.579,1.5817,1.5879,1.5908,1.595,1.5997,1.601,1.6054,1.6087,1.6135,1.6157,1.6222,1.6236,1.6251,1.6256,1.625,1.6248,1.6269,1.6266,1.6266,1.6266,1.6265,1.6265,0,1.564,1.5672,1.5746,1.5801,1.5817,1.5861,1.5909,1.5949,1.5975,1.6034,1.605,1.6091,1.6148,1.6179,1.6252,1.6266,1.6338,1.6341,1.6321,1.6324,1.6358,1.6354,1.6466,1.6481,1.6401,1.6401,1.6402,0,1.5687,1.5731,1.5791,1.5823,1.5852,1.5904,1.5939,1.5967,1.6002,1.6061,1.6094,1.6152,1.62,1.629,1.6327,1.6381,1.6385,1.642,1.6394,1.6386,1.6385,1.6382,1.6387,1.6425,1.6426,1.6427,1.6427,0,1.5767,1.578,1.583,1.5884,1.5925,1.597,1.6014,1.604,1.6074,1.6114,1.6172,1.6209,1.6282,1.6339,1.6396,1.6425,1.6432,1.6435,1.6446,1.6441,1.6427,1.6434,1.6334,1.6433,1.6432,1.6432,1.6431,1.6431,1.582,1.5859,1.5906,1.5961,1.5997,1.6037,1.6078,1.6108,1.6157,1.6219,1.6232,1.6293,1.634,1.6417,1.6448,1.6496,1.6489,1.6505,1.651,1.6513,1.6514,1.6419,1.6506,1.6506,1.6506,1.6506,1.6506,0,1.59,1.5931,1.598,1.6041,1.6084,1.6086,1.6134,1.617,1.6223,1.6266,1.6313,1.6379,1.6434,1.6474,1.6529,1.656,1.6564,1.6574,1.6572,1.6578,1.6518,1.6502,1.6569,1.6569,1.6569,1.6569,1.6569,1.6569,1.5947,1.6012,1.6031,1.6114,1.6144,1.6204,1.6232,1.6269,1.6303,1.6376,1.6422,1.6447,1.6489,1.6547,1.6597,1.6607,1.6627,1.6636,1.6647,1.6589,1.6583,1.6576,1.6562,1.664,1.664,1.6703,1.6704,1.6704]}]]